• Em Portugal
  • Lista de países
  • Para 7 dias
  • Temperatura da água
  • Mapas de satélite
  • Mapa do tempo
  • Widgets de tempo
  • user-avatar
    Iniciar Sessão

    Previsão horária em Elbasan

    Hoje, 19 Outubro, Sexta-feira

    Tempo Temperatura Precipitação Vento Pressão Humidade
    00:00 +18°C° 0 mm 1 m/s 735 mmHg 69%
    01:00 +18°C° 0 mm 1 m/s 735 mmHg 69%
    02:00 +18°C° 0 mm 1 m/s 735 mmHg 70%
    03:00 +16°C° 0 mm 1 m/s 735 mmHg 71%
    04:00 +16°C° 0 mm 1 m/s 735 mmHg 71%
    05:00 +18°C° 0 mm 1 m/s 735 mmHg 70%
    06:00 +18°C° 0 mm 1 m/s 735 mmHg 69%
    07:00 +18°C° 0 mm 1 m/s 735 mmHg 68%
    08:00 +21°C° 0 mm 1 m/s 736 mmHg 60%
    09:00 +23°C° 0 mm 1 m/s 736 mmHg 53%
    10:00 +25°C° 0 mm 1 m/s 736 mmHg 45%
    11:00 +26°C° 0 mm 1 m/s 736 mmHg 42%
    12:00 +26°C° 0 mm 2 m/s 736 mmHg 40%
    13:00 +27°C° 0 mm 2 m/s 736 mmHg 37%
    14:00 +26°C° 0 mm 2 m/s 735 mmHg 39%
    15:00 +26°C° 0 mm 2 m/s 735 mmHg 42%
    16:00 +25°C° 0 mm 2 m/s 735 mmHg 44%
    17:00 +23°C° 0 mm 2 m/s 735 mmHg 49%
    18:00 +21°C° 0 mm 1 m/s 736 mmHg 54%
    19:00 +19°C° 0 mm 1 m/s 736 mmHg 59%
    20:00 +19°C° 0 mm 1 m/s 736 mmHg 60%
    21:00 +18°C° 0 mm 1 m/s 736 mmHg 61%
    22:00 +18°C° 0 mm 1 m/s 737 mmHg 62%
    23:00 +18°C° 0 mm 1 m/s 737 mmHg 63%

    Amanhã, 20 Outubro, Sábado

    Tempo Temperatura Precipitação Vento Pressão Humidade
    00:00 +16°C° 0 mm 1 m/s 737 mmHg 65%
    01:00 +16°C° 0 mm 1 m/s 737 mmHg 66%
    02:00 +16°C° 0 mm 1 m/s 737 mmHg 68%
    03:00 +16°C° 0 mm 1 m/s 737 mmHg 70%
    04:00 +15°C° 0 mm 1 m/s 737 mmHg 71%
    05:00 +16°C° 0 mm 1 m/s 737 mmHg 71%
    06:00 +16°C° 0 mm 1 m/s 737 mmHg 70%
    07:00 +18°C° 0 mm 1 m/s 737 mmHg 69%
    08:00 +20°C° 0 mm 1 m/s 738 mmHg 61%
    09:00 +22°C° 0 mm 1 m/s 738 mmHg 54%
    10:00 +24°C° 0 mm 1 m/s 738 mmHg 46%
    11:00 +24°C° 0 mm 2 m/s 738 mmHg 44%
    12:00 +25°C° 0 mm 2 m/s 738 mmHg 42%
    13:00 +25°C° 0 mm 3 m/s 737 mmHg 40%
    14:00 +25°C° 0 mm 3 m/s 737 mmHg 43%
    15:00 +24°C° 0 mm 3 m/s 737 mmHg 45%
    16:00 +22°C° 0 mm 3 m/s 737 mmHg 47%
    17:00 +21°C° 0 mm 3 m/s 737 mmHg 52%
    18:00 +19°C° 0 mm 2 m/s 737 mmHg 58%
    19:00 +17°C° 0 mm 2 m/s 738 mmHg 63%
    20:00 +17°C° 0 mm 2 m/s 738 mmHg 65%
    21:00 +16°C° 0 mm 2 m/s 738 mmHg 66%
    22:00 +16°C° 0 mm 2 m/s 738 mmHg 68%
    23:00 +15°C° 0 mm 2 m/s 738 mmHg 69%

    Depois de amanhã, 21 Outubro, Domingo

    Tempo Temperatura Precipitação Vento Pressão Humidade
    00:00 +15°C° 0 mm 2 m/s 738 mmHg 70%
    01:00 +14°C° 0 mm 2 m/s 738 mmHg 70%
    02:00 +14°C° 0 mm 2 m/s 738 mmHg 72%
    03:00 +14°C° 0 mm 2 m/s 737 mmHg 73%
    04:00 +13°C° 0 mm 2 m/s 737 mmHg 74%
    05:00 +14°C° 0 mm 2 m/s 737 mmHg 73%
    06:00 +14°C° 0 mm 2 m/s 737 mmHg 72%
    07:00 +15°C° 0 mm 2 m/s 737 mmHg 71%
    08:00 +17°C° 0 mm 2 m/s 737 mmHg 63%
    09:00 +19°C° 0 mm 2 m/s 737 mmHg 54%
    10:00 +22°C° 0 mm 1 m/s 737 mmHg 46%
    11:00 +21°C° 0 mm 2 m/s 736 mmHg 44%
    12:00 +23°C° 0 mm 2 m/s 736 mmHg 42%
    13:00 +23°C° 0 mm 2 m/s 735 mmHg 39%
    14:00 +21°C° 0 mm 2 m/s 735 mmHg 43%
    15:00 +21°C° 0 mm 2 m/s 735 mmHg 46%
    16:00 +20°C° 0 mm 3 m/s 734 mmHg 50%
    17:00 +18°C° 0 mm 2 m/s 734 mmHg 57%
    18:00 +18°C° 0 mm 1 m/s 734 mmHg 64%
    19:00 +15°C° 0 mm 1 m/s 734 mmHg 70%
    20:00 +15°C° 0.1 mm 1 m/s 734 mmHg 72%
    21:00 +14°C° 0.1 mm 1 m/s 734 mmHg 74%
    22:00 +14°C° 0.1 mm 1 m/s 734 mmHg 76%
    23:00 +14°C° 0.2 mm 1 m/s 734 mmHg 76%

    22 Outubro, Segunda-feira

    Tempo Temperatura Precipitação Vento Pressão Humidade
    00:00 +14°C° 0.2 mm 1 m/s 734 mmHg 76%
    01:00 +14°C° 0.2 mm 2 m/s 734 mmHg 76%
    02:00 +14°C° 0.3 mm 2 m/s 733 mmHg 77%
    03:00 +13°C° 0.3 mm 2 m/s 733 mmHg 78%
    04:00 +13°C° 0.3 mm 2 m/s 733 mmHg 79%
    05:00 +13°C° 0.2 mm 2 m/s 733 mmHg 78%
    06:00 +13°C° 0.2 mm 2 m/s 733 mmHg 78%
    07:00 +14°C° 0.2 mm 2 m/s 733 mmHg 77%
    08:00 +14°C° 0.2 mm 3 m/s 733 mmHg 70%
    09:00 +16°C° 0.2 mm 3 m/s 733 mmHg 63%
    10:00 +18°C° 0.2 mm 3 m/s 734 mmHg 55%
    11:00 +17°C° 0.5 mm 3 m/s 733 mmHg 56%
    12:00 +17°C° 0.5 mm 3 m/s 733 mmHg 57%
    13:00 +17°C° 0.5 mm 2 m/s 733 mmHg 58%
    14:00 +16°C° 0.5 mm 2 m/s 733 mmHg 61%
    15:00 +16°C° 0.5 mm 2 m/s 733 mmHg 63%
    16:00 +16°C° 0.5 mm 2 m/s 733 mmHg 66%
    17:00 +15°C° 0.5 mm 2 m/s 733 mmHg 70%
    18:00 +14°C° 0.5 mm 2 m/s 733 mmHg 75%
    19:00 +13°C° 0.5 mm 2 m/s 733 mmHg 79%
    20:00 +13°C° 0.6 mm 2 m/s 733 mmHg 80%
    21:00 +13°C° 0.6 mm 2 m/s 733 mmHg 81%
    22:00 +13°C° 0.6 mm 2 m/s 733 mmHg 81%
    23:00 +12°C° 0.1 mm 3 m/s 732 mmHg 81%

    23 Outubro, Terça-feira

    Tempo Temperatura Precipitação Vento Pressão Humidade
    00:00 +11°C° 0.1 mm 3 m/s 732 mmHg 80%
    01:00 +11°C° 0.1 mm 3 m/s 731 mmHg 79%
    02:00 +11°C° 0 mm 4 m/s 731 mmHg 79%
    03:00 +11°C° 0 mm 4 m/s 731 mmHg 78%
    04:00 +10°C° 0 mm 5 m/s 730 mmHg 77%
    05:00 +12°C° 0 mm 5 m/s 730 mmHg 77%
    06:00 +12°C° 0 mm 4 m/s 730 mmHg 76%
    07:00 +12°C° 0 mm 4 m/s 730 mmHg 76%
    08:00 +13°C° 0 mm 4 m/s 731 mmHg 71%
    09:00 +14°C° 0 mm 4 m/s 731 mmHg 65%
    10:00 +15°C° 0 mm 5 m/s 731 mmHg 60%
    11:00 +17°C° 0.1 mm 4 m/s 731 mmHg 58%
    12:00 +17°C° 0.1 mm 4 m/s 731 mmHg 56%
    13:00 +18°C° 0.1 mm 4 m/s 730 mmHg 55%
    14:00 +17°C° 0.1 mm 4 m/s 730 mmHg 57%
    15:00 +17°C° 0.1 mm 3 m/s 730 mmHg 59%
    16:00 +17°C° 0.1 mm 3 m/s 730 mmHg 61%
    17:00 +16°C° 0 mm 3 m/s 731 mmHg 64%
    18:00 +14°C° 0 mm 3 m/s 731 mmHg 68%
    19:00 +13°C° 0 mm 3 m/s 731 mmHg 71%
    20:00 +13°C° 0 mm 3 m/s 731 mmHg 72%
    21:00 +12°C° 0 mm 3 m/s 731 mmHg 73%
    22:00 +12°C° 0 mm 3 m/s 731 mmHg 74%
    23:00 +12°C° 0.1 mm 3 m/s 731 mmHg 75%

    24 Outubro, Quarta-feira

    Tempo Temperatura Precipitação Vento Pressão Humidade
    00:00 +12°C° 0.1 mm 3 m/s 731 mmHg 76%
    01:00 +12°C° 0.1 mm 3 m/s 731 mmHg 76%
    02:00 +11°C° 0.1 mm 3 m/s 731 mmHg 77%
    03:00 +11°C° 0.1 mm 3 m/s 731 mmHg 78%
    04:00 +11°C° 0.1 mm 3 m/s 731 mmHg 78%
    05:00 +11°C° 0.1 mm 3 m/s 732 mmHg 77%
    06:00 +11°C° 0.1 mm 3 m/s 732 mmHg 76%
    07:00 +11°C° 0.1 mm 3 m/s 732 mmHg 74%
    08:00 +13°C° 0 mm 3 m/s 732 mmHg 67%
    09:00 +14°C° 0 mm 3 m/s 732 mmHg 59%
    10:00 +17°C° 0 mm 3 m/s 733 mmHg 51%
    11:00 +17°C° 0 mm 3 m/s 733 mmHg 49%
    12:00 +18°C° 0 mm 2 m/s 732 mmHg 46%
    13:00 +19°C° 0 mm 2 m/s 732 mmHg 43%
    14:00 +18°C° 0 mm 2 m/s 732 mmHg 45%
    15:00 +18°C° 0 mm 2 m/s 732 mmHg 47%
    16:00 +18°C° 0 mm 2 m/s 732 mmHg 48%
    17:00 +16°C° 0 mm 2 m/s 732 mmHg 52%
    18:00 +15°C° 0 mm 2 m/s 733 mmHg 56%
    19:00 +13°C° 0 mm 2 m/s 733 mmHg 60%
    20:00 +13°C° 0 mm 2 m/s 733 mmHg 62%
    21:00 +12°C° 0 mm 2 m/s 734 mmHg 63%
    22:00 +12°C° 0 mm 2 m/s 734 mmHg 65%
    23:00 +10°C° 0 mm 2 m/s 734 mmHg 66%
    Mostrar mais